Flag for Canada Weather past 2 weeks in Saint-Jérôme, Quebec, Canada

Now
70 °F

Broken clouds.


Feels Like: 70 °F
Forecast: N/A
Wind: 7 mph from Northwest

Location: Montreal / Mirabel

Current Time: Jul 29, 2014 at 5:08:45 PM

Latest Report: Jul 29, 2014 at 4:00 PM


Visibility: 45 mi

Pressure: 29.88 "Hg

Humidity: 50%

Dew point: 50 °F

Location of Saint-JérômeLocation

Historic Weather in Saint-Jérôme — Graph

°F

Saint-Jérôme temperature yesterday

Maximum temperature yesterday: 64 °F (at 12:00 AM)
Minimum temperature yesterday: 57 °F (at 10:00 PM)
Average temperature yesterday: 62 °F

Past Weeks' High & Low Weather Summary

 TemperatureHumidityPressure
High81 °F (Jul 20, 4:00 PM)100% (Jul 15, 10:00 PM)30.29 "Hg (Jul 15, 10:00 PM)
Low50 °F (Jul 24, 6:00 AM)41% (Jul 24, 3:00 PM)29.59 "Hg (Jul 27, 5:00 PM)
Average66 °F78%29.92 "Hg
* Reported Jul 14 4:00 PM — Jul 29 4:00 PM, Saint-Jérôme, Weather by CustomWeather, © 2014

Note: Actual official high and low records may vary slightly from our data, if they occured in-between our weather recording intervals... More about our weather records

Advertising

Saint-Jérôme weather history for previous 24 hours

 ConditionsComfort  
Time TempWeatherWind HumidityBarometerVisibility
4:00 PM
Jul 29
70 °FBroken clouds.7 mph50%29.88 "Hg45 mi
3:00 PM66 °FMostly cloudy.8 mph56%29.87 "Hg45 mi
2:00 PM64 °FMostly cloudy.9 mph60%29.86 "Hg45 mi
1:00 PM64 °FMostly cloudy.6 mph64%29.85 "Hg45 mi
12:00 PM64 °FBroken clouds.8 mph60%29.85 "Hg45 mi
11:00 AM63 °FPartly sunny.6 mph68%29.83 "Hg45 mi
10:00 AM61 °FScattered clouds.7 mph72%29.82 "Hg45 mi
9:00 AM59 °FPassing clouds.3 mph77%29.80 "Hg45 mi
8:00 AM55 °FPassing clouds.5 mph88%29.78 "Hg45 mi
7:00 AM52 °FBroken clouds.6 mph94%29.76 "Hg25 mi
6:00 AM50 °FPartly cloudy.6 mph94%29.75 "Hg30 mi
5:00 AM52 °FPassing clouds.7 mph94%29.73 "Hg25 mi
4:00 AM54 °FPassing clouds.7 mph88%29.70 "Hg25 mi
3:00 AM52 °FPassing clouds.5 mph94%29.70 "Hg25 mi
2:00 AM55 °FPartly cloudy.6 mph88%29.69 "Hg25 mi
1:00 AM57 °FCool.6 mph88%29.69 "Hg25 mi
12:00 AM57 °FOvercast.7 mph94%29.69 "Hg25 mi
11:00 PM
Jul 28
59 °FOvercast.5 mph94%29.68 "Hg25 mi
10:00 PM57 °FMostly cloudy.5 mph100%29.67 "Hg25 mi
9:00 PM59 °FMore clouds than sun.3 mph94%29.66 "Hg25 mi
8:00 PM59 °FSprinkles. Mostly cloudy.6 mph88%29.65 "Hg15 mi
7:00 PM59 °FSprinkles. Overcast.9 mph94%29.65 "Hg15 mi
6:00 PM61 °FSprinkles. Mostly cloudy.7 mph94%29.65 "Hg15 mi
Weather by CustomWeather, © 2014

See weather overviewHow to use our weather pages